Time,TemperatureF,DewpointF,PressureIn,WindDirection,WindDirectionDegrees,WindSpeedMPH,WindSpeedGustMPH,Humidity,HourlyPrecipIn,Conditions,Clouds,dailyrainin,SoftwareType,DateUTC
2013-10-21 00:13:00,57.0,47.0,29.80,SSW,196,3.0,6.0,68,0.00,,,0.00,,2013-10-21 05:13:00,
2013-10-21 00:23:00,56.0,47.0,29.80,SW,234,2.0,5.0,71,0.00,,,0.00,,2013-10-21 05:23:00,
2013-10-21 00:43:00,56.0,47.0,29.81,WSW,244,2.0,5.0,73,0.00,,,0.00,,2013-10-21 05:43:00,
2013-10-21 00:52:00,55.0,48.0,29.80,WSW,258,2.0,5.0,77,0.00,,,0.00,,2013-10-21 05:52:00,
2013-10-21 01:12:00,55.0,48.0,29.80,WSW,250,2.0,5.0,78,0.00,,,0.00,,2013-10-21 06:12:00,
2013-10-21 01:22:00,55.0,49.0,29.80,WSW,247,3.0,7.0,80,0.00,,,0.00,,2013-10-21 06:22:00,
2013-10-21 01:42:00,55.0,48.0,29.80,WSW,258,4.0,7.0,78,0.00,,,0.00,,2013-10-21 06:42:00,
2013-10-21 01:52:00,55.0,48.0,29.80,WSW,249,6.0,9.0,77,0.00,,,0.00,,2013-10-21 06:52:00,
2013-10-21 02:12:00,54.0,48.0,29.81,West,265,7.0,12.0,80,0.00,,,0.00,,2013-10-21 07:12:00,
2013-10-21 02:22:00,54.0,49.0,29.82,West,273,6.0,9.0,82,0.00,,,0.00,,2013-10-21 07:22:00,
2013-10-21 02:42:00,53.0,48.0,29.82,West,273,6.0,11.0,82,0.00,,,0.00,,2013-10-21 07:42:00,
2013-10-21 02:52:00,53.0,47.0,29.83,West,261,6.0,10.0,81,0.00,,,0.00,,2013-10-21 07:52:00,
2013-10-21 03:12:00,52.0,47.0,29.83,West,268,4.0,9.0,82,0.00,,,0.00,,2013-10-21 08:12:00,
2013-10-21 03:21:00,52.0,47.0,29.83,West,277,5.0,10.0,82,0.00,,,0.00,,2013-10-21 08:21:00,
2013-10-21 03:42:00,51.0,46.0,29.82,West,265,3.0,8.0,82,0.00,,,0.00,,2013-10-21 08:42:00,
2013-10-21 03:52:00,51.0,46.0,29.83,West,276,4.0,7.0,82,0.00,,,0.00,,2013-10-21 08:52:00,
2013-10-21 04:11:00,51.0,46.0,29.84,West,277,4.0,10.0,83,0.00,,,0.00,,2013-10-21 09:11:00,
2013-10-21 04:22:00,51.0,46.0,29.84,West,281,4.0,6.0,83,0.00,,,0.00,,2013-10-21 09:22:00,
2013-10-21 04:43:00,50.0,46.0,29.84,West,262,3.0,7.0,85,0.00,,,0.00,,2013-10-21 09:43:00,
2013-10-21 04:54:00,50.0,46.0,29.84,WSW,253,5.0,8.0,85,0.00,,,0.00,,2013-10-21 09:54:00,
2013-10-21 05:13:00,50.0,46.0,29.85,West,269,5.0,8.0,85,0.00,,,0.00,,2013-10-21 10:13:00,
2013-10-21 05:23:00,50.0,46.0,29.85,West,269,5.0,11.0,85,0.00,,,0.00,,2013-10-21 10:23:00,
2013-10-21 05:43:00,49.0,45.0,29.85,NW,324,5.0,9.0,85,0.00,,,0.00,,2013-10-21 10:43:00,
2013-10-21 05:52:00,49.0,44.0,29.86,WNW,290,7.0,12.0,82,0.00,,,0.00,,2013-10-21 10:52:00,
2013-10-21 06:12:00,47.0,42.0,29.86,WNW,288,6.0,12.0,83,0.00,,,0.00,,2013-10-21 11:12:00,
2013-10-21 06:22:00,46.0,41.0,29.87,West,265,5.0,12.0,81,0.00,,,0.00,,2013-10-21 11:22:00,
2013-10-21 06:42:00,45.0,40.0,29.87,West,274,5.0,10.0,82,0.00,,,0.00,,2013-10-21 11:42:00,
2013-10-21 06:52:00,44.0,39.0,29.87,West,277,5.0,7.0,84,0.00,,,0.00,,2013-10-21 11:52:00,
2013-10-21 07:12:00,43.0,39.0,29.88,WNW,286,4.0,8.0,87,0.00,,,0.00,,2013-10-21 12:12:00,
2013-10-21 07:22:00,43.0,39.0,29.88,West,278,5.0,9.0,87,0.00,,,0.00,,2013-10-21 12:22:00,
2013-10-21 07:42:00,42.0,39.0,29.89,West,265,4.0,9.0,88,0.00,,,0.00,,2013-10-21 12:42:00,
2013-10-21 07:52:00,42.0,39.0,29.90,West,279,5.0,10.0,89,0.00,,,0.00,,2013-10-21 12:52:00,
2013-10-21 08:11:00,42.0,39.0,29.90,West,272,5.0,10.0,88,0.00,,,0.00,,2013-10-21 13:11:00,
2013-10-21 08:22:00,42.0,39.0,29.91,West,267,5.0,8.0,88,0.00,,,0.00,,2013-10-21 13:22:00,
2013-10-21 08:42:00,42.0,39.0,29.92,West,280,6.0,10.0,89,0.00,,,0.00,,2013-10-21 13:42:00,
2013-10-21 08:52:00,43.0,39.0,29.93,WNW,286,7.0,12.0,86,0.00,,,0.00,,2013-10-21 13:52:00,
2013-10-21 09:11:00,42.0,37.0,29.93,West,271,7.0,11.0,81,0.00,,,0.00,,2013-10-21 14:11:00,
2013-10-21 09:22:00,42.0,37.0,29.94,West,275,6.0,10.0,81,0.00,,,0.00,,2013-10-21 14:22:00,
2013-10-21 09:42:00,42.0,36.0,29.94,WNW,300,6.0,12.0,79,0.00,,,0.00,,2013-10-21 14:42:00,
2013-10-21 09:52:00,42.0,35.0,29.93,WSW,257,7.0,14.0,77,0.00,,,0.00,,2013-10-21 14:52:00,
2013-10-21 10:12:00,43.0,35.0,29.94,WNW,282,8.0,14.0,74,0.00,,,0.00,,2013-10-21 15:12:00,
2013-10-21 10:21:00,43.0,35.0,29.94,West,274,6.0,13.0,73,0.00,,,0.00,,2013-10-21 15:21:00,
2013-10-21 10:43:00,44.0,36.0,29.94,WNW,298,6.0,10.0,73,0.00,,,0.00,,2013-10-21 15:43:00,
2013-10-21 10:53:00,43.0,35.0,29.94,West,279,5.0,12.0,74,0.00,,,0.00,,2013-10-21 15:53:00,
2013-10-21 11:13:00,45.0,35.0,29.93,West,263,7.0,11.0,69,0.00,,,0.00,,2013-10-21 16:13:00,
2013-10-21 11:23:00,45.0,35.0,29.93,WNW,296,6.0,14.0,68,0.00,,,0.00,,2013-10-21 16:23:00,
2013-10-21 11:43:00,46.0,35.0,29.93,WNW,286,6.0,13.0,66,0.00,,,0.00,,2013-10-21 16:43:00,
2013-10-21 11:53:00,46.0,35.0,29.93,West,277,9.0,17.0,64,0.00,,,0.00,,2013-10-21 16:53:00,
2013-10-21 12:12:00,47.0,34.0,29.93,West,265,7.0,13.0,61,0.00,,,0.00,,2013-10-21 17:12:00,
2013-10-21 12:22:00,47.0,33.0,29.93,West,266,8.0,14.0,59,0.00,,,0.00,,2013-10-21 17:22:00,
2013-10-21 12:43:00,48.0,34.0,29.93,West,267,6.0,13.0,58,0.00,,,0.00,,2013-10-21 17:43:00,
2013-10-21 12:53:00,48.0,33.0,29.92,West,272,9.0,14.0,56,0.00,,,0.00,,2013-10-21 17:53:00,
2013-10-21 13:12:00,48.0,33.0,29.92,West,273,9.0,18.0,55,0.00,,,0.00,,2013-10-21 18:12:00,
2013-10-21 13:22:00,49.0,34.0,29.92,West,276,11.0,20.0,56,0.00,,,0.00,,2013-10-21 18:22:00,
2013-10-21 13:42:00,48.0,33.0,29.92,West,280,12.0,17.0,55,0.00,,,0.00,,2013-10-21 18:42:00,
2013-10-21 13:52:00,48.0,32.0,29.92,WSW,257,9.0,15.0,54,0.00,,,0.00,,2013-10-21 18:52:00,
2013-10-21 14:11:00,48.0,32.0,29.91,West,260,11.0,18.0,54,0.00,,,0.00,,2013-10-21 19:11:00,
2013-10-21 14:22:00,48.0,32.0,29.91,West,260,11.0,18.0,54,0.00,,,0.00,,2013-10-21 19:22:00,
2013-10-21 14:42:00,49.0,33.0,29.91,West,270,10.0,15.0,53,0.00,,,0.00,,2013-10-21 19:42:00,
2013-10-21 14:52:00,48.0,32.0,29.91,WSW,249,11.0,18.0,53,0.00,,,0.00,,2013-10-21 19:52:00,
2013-10-21 15:11:00,49.0,32.0,29.91,WSW,245,8.0,18.0,51,0.00,,,0.00,,2013-10-21 20:11:00,
2013-10-21 15:22:00,49.0,30.0,29.91,West,261,10.0,23.0,48,0.00,,,0.00,,2013-10-21 20:22:00,
2013-10-21 15:43:00,49.0,30.0,29.91,West,274,10.0,16.0,47,0.00,,,0.00,,2013-10-21 20:43:00,
2013-10-21 15:52:00,49.0,30.0,29.91,WNW,282,9.0,16.0,47,0.00,,,0.00,,2013-10-21 20:52:00,
2013-10-21 16:12:00,48.0,29.0,29.92,West,281,11.0,17.0,48,0.00,,,0.00,,2013-10-21 21:12:00,
2013-10-21 16:22:00,47.0,29.0,29.92,West,262,11.0,18.0,49,0.00,,,0.00,,2013-10-21 21:22:00,
2013-10-21 16:54:00,46.0,27.0,29.93,West,260,10.0,17.0,47,0.00,,,0.00,,2013-10-21 21:54:00,
2013-10-21 17:13:00,46.0,27.0,29.94,WNW,283,8.0,16.0,48,0.00,,,0.00,,2013-10-21 22:13:00,
2013-10-21 17:24:00,45.0,27.0,29.94,West,277,10.0,16.0,49,0.00,,,0.00,,2013-10-21 22:24:00,
2013-10-21 17:44:00,44.0,27.0,29.95,WNW,286,8.0,16.0,50,0.00,,,0.00,,2013-10-21 22:44:00,
2013-10-21 17:53:00,44.0,27.0,29.95,WSW,256,7.0,16.0,51,0.00,,,0.00,,2013-10-21 22:53:00,
2013-10-21 18:13:00,43.0,27.0,29.95,West,264,5.0,12.0,52,0.00,,,0.00,,2013-10-21 23:13:00,
2013-10-21 18:22:00,42.0,27.0,29.96,West,265,6.0,9.0,54,0.00,,,0.00,,2013-10-21 23:22:00,
2013-10-21 18:42:00,42.0,27.0,29.97,West,261,6.0,10.0,55,0.00,,,0.00,,2013-10-21 23:42:00,
2013-10-21 18:53:00,40.0,27.0,29.97,West,281,3.0,6.0,59,0.00,,,0.00,,2013-10-21 23:53:00,
2013-10-21 19:12:00,39.0,27.0,29.98,WNW,284,3.0,7.0,62,0.00,,,0.00,,2013-10-22 00:12:00,
2013-10-21 19:22:00,39.0,27.0,29.98,West,276,5.0,9.0,61,0.00,,,0.00,,2013-10-22 00:22:00,
2013-10-21 19:42:00,40.0,27.0,29.98,West,274,4.0,7.0,60,0.00,,,0.00,,2013-10-22 00:42:00,
2013-10-21 19:53:00,39.0,27.0,29.98,West,266,3.0,8.0,62,0.00,,,0.00,,2013-10-22 00:53:00,
2013-10-21 20:12:00,38.0,27.0,29.98,WNW,284,3.0,5.0,64,0.00,,,0.00,,2013-10-22 01:12:00,
2013-10-21 20:22:00,37.0,27.0,29.98,West,281,2.0,5.0,66,0.00,,,0.00,,2013-10-22 01:22:00,
2013-10-21 20:42:00,36.0,26.0,29.98,West,281,2.0,4.0,68,0.00,,,0.00,,2013-10-22 01:42:00,
2013-10-21 20:52:00,35.0,26.0,29.98,West,281,1.0,4.0,70,0.00,,,0.00,,2013-10-22 01:52:00,
2013-10-21 21:11:00,35.0,26.0,29.98,West,281,2.0,3.0,70,0.00,,,0.00,,2013-10-22 02:11:00,
2013-10-21 21:22:00,35.0,26.0,29.98,West,281,2.0,4.0,70,0.00,,,0.00,,2013-10-22 02:22:00,
2013-10-21 21:42:00,35.0,26.0,29.98,West,281,2.0,4.0,70,0.00,,,0.00,,2013-10-22 02:42:00,
2013-10-21 21:52:00,35.0,26.0,29.98,West,281,1.0,3.0,70,0.00,,,0.00,,2013-10-22 02:52:00,
2013-10-21 22:12:00,34.0,26.0,29.98,West,281,2.0,3.0,72,0.00,,,0.00,,2013-10-22 03:12:00,
2013-10-21 22:22:00,34.0,26.0,29.98,West,281,1.0,4.0,73,0.00,,,0.00,,2013-10-22 03:22:00,
2013-10-21 22:45:00,32.0,26.0,29.98,West,281,2.0,4.0,78,0.00,,,0.00,,2013-10-22 03:45:00,
2013-10-21 22:55:00,31.0,25.0,29.98,West,281,1.0,3.0,79,0.00,,,0.00,,2013-10-22 03:55:00,
2013-10-21 23:13:00,31.0,26.0,29.98,West,281,0.0,3.0,80,0.00,,,0.00,,2013-10-22 04:13:00,
2013-10-21 23:24:00,32.0,26.0,29.98,West,281,1.0,3.0,79,0.00,,,0.00,,2013-10-22 04:24:00,
2013-10-21 23:43:00,31.0,26.0,29.98,West,281,0.0,1.0,80,0.00,,,0.00,,2013-10-22 04:43:00,
2013-10-21 23:55:00,31.0,26.0,29.98,West,281,0.0,2.0,81,0.00,,,0.00,,2013-10-22 04:55:00,